This demonstration page uses our WeatherBlox Daily Observations layout. Learn more.

Left ArrowRight Arrow

Hourly Observations for January 17, 2022

Temp ( °F °C ) Dew Point ( °F °C ) Humidity (%) Winds ( mph kmh ) Pressure ( in mb ) Visibility ( mi km ) Precip ( " mm )
12:53 am 00:53 Clear 34 1.1 3 -16.1 27 27 NNW 8 13 30.03 1017 10 16 0.00 0.00
1:53 am 01:53 Clear 33 0.6 5 -15 30 30 NNW 9 15 30.03 1017 10 16 0.00 0.00
2:53 am 02:53 Clear 30 -1.1 5 -15 34 34 N 7 11 30.04 1017 10 16 0.00 0.00
3:53 am 03:53 Clear 30 -1.1 6 -14.4 36 36 NW 8 13 30.04 1017 10 16 0.00 0.00
4:53 am 04:53 Clear 27 -2.8 5 -15 39 39 N 8 13 30.04 1017 10 16 0.00 0.00
5:53 am 05:53 Clear 26 -3.3 5 -15 40 40 N 8 13 30.06 1018 10 16 0.00 0.00
6:53 am 06:53 Clear 27 -2.8 6 -14.4 41 41 N 8 13 30.08 1019 10 16 0.00 0.00
7:53 am 07:53 Sunny 25 -3.9 6 -14.4 44 44 N 8 13 30.10 1019 10 16 0.00 0.00
8:53 am 08:53 Sunny 31 -0.6 8 -13.3 38 38 N 5 7 30.10 1019 10 16 0.00 0.00
9:53 am 09:53 Sunny 41 5 10 -12.2 28 28 Calm 30.10 1019 10 16 0.00 0.00
10:53 am 10:53 Sunny 48 8.9 9 -12.8 20 20 SSW 3 6 30.09 1019 10 16 0.00 0.00
11:53 am 11:53 Sunny 53 11.7 9 -12.8 17 17 S 3 6 30.07 1018 10 16 0.00 0.00
12:53 pm 12:53 Sunny 58 14.4 8 -13.3 13 13 SW 6 9 30.03 1017 10 16 0.00 0.00
1:53 pm 13:53 Sunny 62 16.7 9 -12.8 12 12 WSW 9 15 29.97 1015 10 16 0.00 0.00
2:53 pm 14:53 Sunny 65 18.3 9 -12.8 11 11 SW 6 9 29.94 1014 10 16 0.00 0.00
3:53 pm 15:53 Sunny 66 18.9 7 -13.9 10 10 WSW 3 6 29.93 1014 10 16 0.00 0.00
4:53 pm 16:53 Sunny 67 19.4 7 -13.9 9 9 S 7 11 29.92 1013 10 16 0.00 0.00
5:53 pm 17:53 Sunny 63 17.2 7 -13.9 11 11 S 7 11 29.92 1013 10 16 0.00 0.00
6:53 pm 18:53 Clear 55 12.8 6 -14.4 14 14 SSE 9 15 29.93 1013 10 16 0.00 0.00
7:53 pm 19:53 Clear 52 11.1 5 -15 15 15 S 10 17 29.94 1014 10 16 0.00 0.00
8:53 pm 20:53 Clear 50 10 4 -15.6 15 15 S 8 13 29.95 1014 10 16 0.00 0.00
9:53 pm 21:53 Clear 51 10.6 4 -15.6 14 14 S 12 19 29.93 1014 10 16 0.00 0.00
10:53 pm 22:53 Clear 50 10 4 -15.6 15 15 S 9 15 29.91 1013 10 16 0.00 0.00
11:53 pm 23:53 Mostly Clear 52 11.1 9 -12.8 17 17 SSW 3 6 29.88 1012 10 16 0.00 0.00

Powered by AerisWeather